TimeMDT,TemperatureF,Dew PointF,Humidity,Sea Level PressureIn,VisibilityMPH,Wind Direction,Wind SpeedMPH,Gust SpeedMPH,PrecipitationIn,Events,Conditions,WindDirDegrees,DateUTC
12:35 AM,28.4,23.0,80,30.21,10.0,SSE,5.8,-,N/A,,Overcast,150,2012-10-28 06:35:00
12:55 AM,28.4,23.0,80,30.20,9.0,SE,5.8,-,N/A,,Overcast,140,2012-10-28 06:55:00
1:15 AM,28.4,23.0,80,30.19,8.0,ESE,5.8,-,N/A,,Overcast,120,2012-10-28 07:15:00
1:35 AM,28.4,23.0,80,30.19,6.0,ESE,4.6,-,N/A,,Overcast,120,2012-10-28 07:35:00
1:55 AM,28.4,23.0,80,30.18,3.0,East,4.6,-,N/A,,Overcast,100,2012-10-28 07:55:00
2:15 AM,28.4,23.0,80,30.18,6.0,ESE,4.6,-,N/A,,Overcast,120,2012-10-28 08:15:00
2:35 AM,28.4,24.8,86,30.18,10.0,ESE,4.6,-,N/A,,Mostly Cloudy,120,2012-10-28 08:35:00
2:55 AM,28.4,23.0,80,30.17,10.0,ESE,6.9,-,N/A,,Overcast,120,2012-10-28 08:55:00
3:15 AM,28.4,23.0,80,30.16,9.0,ESE,6.9,-,N/A,,Overcast,120,2012-10-28 09:15:00
3:35 AM,28.4,21.2,74,30.16,10.0,SE,8.1,-,N/A,,Overcast,130,2012-10-28 09:35:00
3:55 AM,28.4,23.0,80,30.15,10.0,ESE,6.9,-,N/A,,Overcast,120,2012-10-28 09:55:00
4:15 AM,28.4,23.0,80,30.14,10.0,East,6.9,-,N/A,,Overcast,100,2012-10-28 10:15:00
4:35 AM,28.4,23.0,80,30.14,10.0,ESE,5.8,-,N/A,,Overcast,120,2012-10-28 10:35:00
4:55 AM,28.4,23.0,80,30.14,10.0,ESE,5.8,-,N/A,,Overcast,120,2012-10-28 10:55:00
5:15 AM,28.4,23.0,80,30.13,10.0,ESE,5.8,-,N/A,,Overcast,120,2012-10-28 11:15:00
5:35 AM,28.4,23.0,80,30.12,10.0,East,6.9,-,N/A,,Overcast,100,2012-10-28 11:35:00
5:55 AM,28.4,23.0,80,30.11,10.0,East,6.9,-,N/A,,Overcast,100,2012-10-28 11:55:00
6:15 AM,28.4,23.0,80,30.11,10.0,ESE,6.9,-,N/A,,Overcast,110,2012-10-28 12:15:00
6:35 AM,28.4,23.0,80,30.11,10.0,SE,8.1,-,N/A,,Overcast,140,2012-10-28 12:35:00
6:55 AM,28.4,24.8,86,30.10,10.0,ESE,8.1,-,N/A,,Overcast,120,2012-10-28 12:55:00
7:15 AM,28.4,24.8,86,30.10,10.0,SE,6.9,-,N/A,,Overcast,130,2012-10-28 13:15:00
7:35 AM,28.4,24.8,86,30.09,10.0,SE,8.1,-,N/A,,Overcast,130,2012-10-28 13:35:00
7:55 AM,28.4,24.8,86,30.08,10.0,ESE,6.9,-,N/A,,Overcast,120,2012-10-28 13:55:00
8:15 AM,28.4,24.8,86,30.09,10.0,SE,11.5,-,N/A,,Overcast,130,2012-10-28 14:15:00
8:35 AM,28.4,24.8,86,30.08,10.0,SE,8.1,-,N/A,,Overcast,130,2012-10-28 14:35:00
8:55 AM,28.4,24.8,86,30.09,10.0,ESE,9.2,-,N/A,,Overcast,120,2012-10-28 14:55:00
9:15 AM,30.2,24.8,80,30.08,10.0,ESE,8.1,-,N/A,,Overcast,120,2012-10-28 15:15:00
9:55 AM,30.2,26.6,86,30.07,1.5,ESE,8.1,-,N/A,,Overcast,110,2012-10-28 15:55:00
10:15 AM,30.2,26.6,86,30.07,2.5,ESE,8.1,-,N/A,,Overcast,120,2012-10-28 16:15:00
10:35 AM,30.2,26.6,86,30.06,4.0,ESE,8.1,-,N/A,,Overcast,120,2012-10-28 16:35:00
11:15 AM,30.2,28.4,93,30.04,2.0,ESE,6.9,-,N/A,,Overcast,120,2012-10-28 17:15:00
11:35 AM,30.2,28.4,93,30.03,2.0,ESE,9.2,-,N/A,,Overcast,120,2012-10-28 17:35:00
11:55 AM,32.0,28.4,87,30.03,2.5,ESE,9.2,-,N/A,,Overcast,110,2012-10-28 17:55:00
12:15 PM,32.0,28.4,87,30.01,4.0,ESE,8.1,-,N/A,,Overcast,110,2012-10-28 18:15:00
12:35 PM,32.0,28.4,87,30.00,10.0,ESE,9.2,-,N/A,,Overcast,120,2012-10-28 18:35:00
12:55 PM,33.8,28.4,81,29.99,10.0,SE,8.1,-,N/A,,Overcast,140,2012-10-28 18:55:00
1:15 PM,33.8,30.2,87,29.99,10.0,SE,11.5,-,N/A,,Overcast,140,2012-10-28 19:15:00
1:35 PM,33.8,30.2,87,29.99,10.0,SE,12.7,-,0.01,,Overcast,130,2012-10-28 19:35:00
1:55 PM,35.6,28.4,75,29.98,10.0,SE,11.5,-,0.01,,Overcast,140,2012-10-28 19:55:00
2:15 PM,35.6,30.2,81,29.97,10.0,SE,11.5,-,N/A,,Overcast,130,2012-10-28 20:15:00
2:35 PM,35.6,30.2,81,29.96,10.0,SSE,13.8,20.7,N/A,,Overcast,150,2012-10-28 20:35:00
2:55 PM,35.6,30.2,81,29.96,10.0,SSE,17.3,-,N/A,,Overcast,150,2012-10-28 20:55:00
3:15 PM,37.4,30.2,75,29.96,10.0,SE,15.0,-,N/A,,Overcast,140,2012-10-28 21:15:00
3:35 PM,37.4,30.2,75,29.96,10.0,SE,15.0,-,N/A,,Overcast,140,2012-10-28 21:35:00
3:55 PM,37.4,30.2,75,29.95,10.0,SSE,13.8,19.6,N/A,,Overcast,150,2012-10-28 21:55:00
4:35 PM,37.4,30.2,75,29.95,10.0,SSE,13.8,-,N/A,,Overcast,150,2012-10-28 22:35:00
4:55 PM,37.4,30.2,75,29.96,10.0,SSE,9.2,-,N/A,,Overcast,150,2012-10-28 22:55:00
5:15 PM,35.6,30.2,81,29.96,10.0,SSE,10.4,-,N/A,,Overcast,150,2012-10-28 23:15:00
5:35 PM,35.6,30.2,81,29.97,5.0,SSE,8.1,-,N/A,,Overcast,150,2012-10-28 23:35:00
5:55 PM,35.6,30.2,81,29.96,6.0,SE,9.2,-,N/A,,Overcast,140,2012-10-28 23:55:00
6:15 PM,35.6,30.2,81,29.95,9.0,SE,9.2,-,N/A,,Overcast,140,2012-10-29 00:15:00
6:35 PM,35.6,32.0,87,29.96,10.0,SSE,8.1,-,N/A,,Overcast,150,2012-10-29 00:35:00
6:55 PM,35.6,32.0,87,29.96,10.0,SSE,6.9,-,N/A,,Overcast,150,2012-10-29 00:55:00
7:15 PM,35.6,32.0,87,29.96,10.0,SSE,6.9,-,N/A,,Overcast,160,2012-10-29 01:15:00
7:35 PM,35.6,32.0,87,29.96,10.0,SSE,8.1,-,N/A,,Overcast,150,2012-10-29 01:35:00
7:55 PM,35.6,32.0,87,29.96,10.0,SSE,5.8,-,N/A,,Overcast,160,2012-10-29 01:55:00
8:15 PM,35.6,30.2,81,29.96,10.0,SSE,4.6,-,N/A,,Overcast,150,2012-10-29 02:15:00
8:35 PM,35.6,32.0,87,29.96,10.0,SE,3.5,-,N/A,,Overcast,140,2012-10-29 02:35:00
8:55 PM,35.6,32.0,87,29.97,10.0,SE,3.5,-,N/A,,Overcast,140,2012-10-29 02:55:00
9:15 PM,35.6,32.0,87,29.97,8.0,East,3.5,-,N/A,,Overcast,100,2012-10-29 03:15:00
9:35 PM,35.6,32.0,87,29.97,8.0,Calm,Calm,-,N/A,,Overcast,0,2012-10-29 03:35:00
9:55 PM,37.4,30.2,75,29.96,7.0,Calm,Calm,-,N/A,,Overcast,0,2012-10-29 03:55:00
10:15 PM,35.6,30.2,81,29.96,9.0,East,4.6,-,N/A,,Overcast,80,2012-10-29 04:15:00
10:35 PM,35.6,32.0,87,29.96,8.0,East,4.6,-,N/A,,Mostly Cloudy,80,2012-10-29 04:35:00
10:55 PM,35.6,30.2,81,29.96,8.0,ENE,4.6,-,N/A,,Partly Cloudy,70,2012-10-29 04:55:00
11:15 PM,33.8,28.4,81,29.95,5.0,ENE,5.8,-,N/A,,Clear,70,2012-10-29 05:15:00
11:35 PM,33.8,30.2,87,29.95,7.0,East,3.5,-,N/A,,Mostly Cloudy,80,2012-10-29 05:35:00
11:55 PM,33.8,30.2,87,29.96,5.0,NE,4.6,-,N/A,,Overcast,40,2012-10-29 05:55:00